Location: Tarleton Observatory
(32.2162°N, 98.0976°W)
Time: 23:42:05
(UTC-05:00)

Daily predictions for brighter satellites

Satellite Brightness Start Highest point End
(mag) Time Altitude Azimuth Time Altitude Azimuth Time Altitude Azimuth
Delta 2 Rocket 4.4 20:18:58 10° WNW 20:24:43 65° N 20:30:02 10° E
Cosmos 968 Rocket 3.4 20:19:57 10° NNW 20:25:05 75° ENE 20:30:10 10° SSE
Cosmos 1544 Rocket 3.8 20:22:37 10° SSE 20:26:47 47° E 20:31:01 10° NNE
NOAA 12 4.3 20:25:00 10° S 20:30:14 81° WSW 20:35:29 10° NNW
GOES 2 Rocket 4.1 20:31:27 10° WSW 20:35:11 31° SSW 20:39:00 10° SE
OTV 4 2.0 20:35:35 10° NW 20:38:12 28° N 20:40:49 10° ENE
BREEZE-M DEB (TANK) 3.5 20:36:21 10° SW 20:39:25 85° NW 20:48:25 10° NE
Cosmos 2219 3.5 20:33:59 10° NNW 20:39:34 71° WSW 20:45:09 10° S
Tiangong 1 3.8 20:42:26 10° NW 20:43:54 13° N 20:45:22 10° NNE
H-II Stage 2 3.7 20:43:43 10° SSW 20:44:46 13° S 20:45:33 11° SE
Meteor 1-29 4.4 20:44:08 10° N 20:47:26 42° WNW 20:50:44 10° SSW
Cosmos 1697 Rocket 3.6 20:42:57 10° SSE 20:47:27 25° ESE 20:51:58 10° NE
Helios 1B rocket 4.2 20:48:03 10° N 20:51:50 36° WNW 20:55:36 10° SW
Cosmos 2278 3.7 20:46:32 10° SSW 20:52:11 87° ESE 20:57:55 10° NNE
Cosmos 1975 3.7 20:48:49 10° SSE 20:52:22 29° E 20:55:58 10° NNE
HJ-1C 4.4 20:49:38 10° S 20:52:48 46° W 20:55:59 10° NNW
Meteor 2-16 Rocket 4.4 20:47:14 10° S 20:53:19 82° E 20:59:24 10° N
Meteor 2-4 Rocket 4.0 20:50:53 10° N 20:56:47 81° W 21:02:43 10° S
SL-24 R/B - RUBIN 2 4.4 20:51:22 10° S 20:56:47 55° ESE 21:02:53 10° NE
EO 1 Delta rocket 4.0 20:54:33 10° NNE 20:59:20 65° E 21:04:59 10° S
H-2A R/B 3.0 20:57:14 10° SSE 21:00:58 51° ENE 21:04:46 10° N
Cosmos 1821 Rocket 4.3 20:54:59 10° SSW 21:01:04 69° W 21:07:08 10° N
Okean 2 3.3 20:57:32 10° N 21:01:43 80° E 21:05:51 10° S
OE (NEXTSAT) 4.4 20:58:34 10° NW 21:02:08 85° SW 21:04:19 22° SE
Cosmos 1605 Rocket 4.0 20:57:44 10° S 21:04:03 70° E 21:10:18 10° NNE
Lacrosse 5 rocket 2.9 21:01:43 10° N 21:04:15 17° NE 21:05:31 15° ENE
Cosmos 2369 3.8 21:00:16 10° SSW 21:05:55 80° WNW 21:11:38 10° NNE
Cosmos 1777 Rocket 4.2 21:04:01 10° NNW 21:09:16 73° WSW 21:14:30 10° S
Cosmos 1980 Rocket 3.2 21:05:44 10° SSE 21:10:03 23° E 21:14:25 10° NE
CZ-4 DEB 4.4 21:11:14 19° ENE 21:11:14 19° ENE 21:13:13 10° NNE
Meteor 1-12 Rocket 4.2 21:10:44 10° S 21:16:23 74° E 21:22:11 10° NNE
CZ-2D R/B 3.3 21:15:51 10° S 21:19:41 77° W 21:23:34 10° NNW
H-2A R/B 3.9 21:23:38 15° NE 21:23:38 15° NE 21:25:21 10° NNE
Cosmos 1939 Rocket 3.9 21:26:45 28° ENE 21:26:47 28° ENE 21:30:21 10° NNE
NOSS 3-4 (A) 3.8 21:20:08 10° NNW 21:27:19 89° ENE 21:32:51 20° SSE
NOSS 3-4 (C) 3.8 21:20:15 10° NNW 21:27:26 88° ENE 21:32:54 21° SSE
Cosmos 1461 2.7 21:23:44 10° NNW 21:27:44 65° ENE 21:28:49 43° SE
Hubble Space Telescope 2.1 21:24:28 10° WSW 21:28:03 27° SSW 21:29:06 24° S
OAO 2 Rocket 3.5 21:25:09 10° W 21:30:09 68° N 21:33:01 26° ENE
Cosmos 1626 Rocket 3.5 21:26:47 10° N 21:31:09 65° E 21:32:54 34° SSE
FENGYUN 3A 4.2 21:29:08 10° S 21:34:23 59° W 21:39:40 10° NNW
Envisat 3.5 21:37:26 37° E 21:38:13 39° ENE 21:42:55 10° N
Cosmos 1500 3.0 21:37:23 50° SSE 21:38:14 73° E 21:42:00 10° N
Cosmos 2123 Rocket 4.3 21:32:31 10° NNW 21:38:37 64° W 21:44:41 10° S
Cosmos 1656 3.8 21:33:54 10° SSW 21:39:31 75° WNW 21:45:07 10° NNE
Cosmos 1602 Rocket 3.4 21:35:35 10° N 21:40:03 85° E 21:41:50 36° S
deb Chang Zheng 4 4.4 21:36:23 10° NNE 21:39:28 33° ENE 21:39:28 33° ENE
Cosmos 1346 Rocket 4.2 21:38:14 10° NNW 21:41:54 37° W 21:45:35 10° SSW
Cosmos 2227 Rocket 2.2 21:37:26 10° NNW 21:43:06 79° WSW 21:46:15 27° S
ALOS 3.7 21:42:15 10° SSW 21:46:31 35° W 21:50:49 10° NNW
Cosmos 1937 Rocket 4.3 21:41:50 10° N 21:46:32 32° ENE 21:46:32 32° ENE
Cosmos 1459 Rocket 3.9 21:43:34 27° SSE 21:46:47 59° E 21:52:44 10° NNE
Iridium 4 Rocket 3.3 21:47:01 10° N 21:52:00 77° W 21:54:06 32° S
USA 186 4.0 21:53:32 16° SW 21:55:05 23° W 21:57:36 10° NW
Cosmos 2082 4.0 21:51:50 10° NNW 21:57:22 62° WSW 22:00:00 31° S
Cosmos 220 Rocket 3.8 21:53:11 10° NNW 21:57:24 83° WSW 21:57:34 80° SSW
Cosmos 2297 Rocket 2.2 21:52:54 10° NNW 21:58:35 82° WSW 22:00:22 45° S
RESURS DK-1 4.1 21:55:09 10° N 21:57:19 22° NNE 21:57:19 22° NNE
Cosmos 2150 Rocket 3.9 21:56:49 10° N 22:01:56 63° ENE 22:02:01 63° ENE
Cosmos 1515 4.2 22:02:18 10° NNW 22:05:50 57° WNW 22:05:50 57° WNW
Delta 2 Rocket 3.9 22:02:13 10° WNW 22:07:44 67° SSW 22:07:51 67° SSW
ERS-1 Rocket 3.0 22:07:57 55° SSW 22:08:59 73° WSW 22:14:01 10° NNW
DELTA 2 R/B (1) 3.8 22:05:40 10° WNW 22:11:09 58° NNE 22:11:47 55° NE
Centaur AC-125 3.8 21:53:37 10° W 22:12:20 56° SSW 22:13:08 52° SSE
Cosmos 1743 4.2 22:15:07 32° N 22:15:07 32° N 22:17:21 10° N
OTV 4 3.4 22:11:47 10° WNW 22:12:40 18° WNW 22:12:40 18° WNW
Cosmos 1802 Rocket 3.9 22:14:20 41° S 22:16:48 90° S 22:23:16 10° N
SL-08 R/B 4.5 22:20:35 63° ENE 22:20:35 63° ENE 22:26:19 10° NNE
Tiangong 1 4.3 22:19:27 10° NNW 22:19:53 12° NNW 22:19:53 12° NNW
Cosmos 1763 Rocket 4.0 22:23:19 49° NNE 22:23:19 49° NNE 22:27:00 10° NNE
Cosmos 1898 Rocket 3.6 22:18:32 10° NNW 22:23:45 74° W 22:23:45 74° W
Lacrosse 5 2.9 22:23:38 10° NNW 22:27:19 37° NNE 22:27:19 37° NNE
SPOT 5 3.5 22:30:12 53° N 22:30:12 53° N 22:33:56 10° N
Cosmos 1697 Rocket 4.2 22:26:02 10° SW 22:31:10 35° WNW 22:36:19 10° N
Cosmos 2016 Rocket 3.9 22:31:45 72° SW 22:32:21 81° W 22:38:33 10° N
Lacrosse 5 rocket 3.9 22:40:15 10° WNW 22:41:15 16° WNW 22:41:15 16° WNW
ARGOS 4.4 22:53:43 35° N 22:53:43 35° N 22:56:47 10° N
Cosmos 1980 Rocket 3.4 22:48:31 10° SW 22:53:44 38° WNW 22:59:02 10° N
H-2A R/B 4.5 23:00:47 19° NW 23:00:47 19° NW 23:02:20 10° NW
Terra 4.5 23:06:58 12° NNE 23:06:58 12° NNE 23:07:24 10° N
H-2A R/B 4.4 23:29:30 17° N 23:29:30 17° N 23:30:36 10° N
Cosmos 2322 Rocket 4.4 23:29:50 18° N 23:29:50 18° N 23:31:18 10° N
Cosmos 2263 Rocket 4.4 23:22:03 10° N 23:23:33 17° N 23:23:33 17° N
